M I D A S
Marine Information and Data Acquisition System
Tripno 1733 of the Zeeleeuw from 2009-07-09 06:46:27 to 2009-07-09 17:26:28
Back to CruiseResearch ActivitiesStationsMapUnderway DataData graphs

EquipmentUnitsComments
TimeDGPSUTC
LatitudeDGPSDM.mWGS84
LongitudeDGPSDM.mWGS84
SpeedMeteo Stationm/sRelative wind speed
DirectionMeteo StationdegRelative wind direction
TemperatureMeteo Stationdeg CelciusAir temperature
PressureMeteo StationPaAtmospheric pressure
HumidityMeteo Station%Relative humidity
Missing or incorrect values are displayed as -999
Metereological data collected by the RV Zeeleeuw from 2009-07-09 06:41:00 to 2009-07-09 17:34:14
Time Latitude Longitude Speed Direction Temperature Pressure Humidity
2009-07-09 06:42 51°13.679 2°55.898 3 29 13.6 101420 73
2009-07-09 06:43 51°13.694 2°55.812 4 39 13.6 101420 73
2009-07-09 06:44 51°13.7 2°55.751 3.6 35 13.6 101420 72
2009-07-09 06:45 51°13.702 2°55.743 1.6 25 13.6 101420 85
2009-07-09 06:46 51°13.706 2°55.734 3.8 25 13.8 101420 85
2009-07-09 06:47 51°13.772 2°55.684 3 249 13.7 101430 90
2009-07-09 06:48 51°13.899 2°55.585 2.5 329 13.7 101420 88
2009-07-09 06:49 51°14.044 2°55.474 2.2 322 13.8 101420 87
2009-07-09 06:50 51°14.185 2°55.352 3.4 21 13.8 101420 89
2009-07-09 06:51 51°14.304 2°55.175 5.9 28 13.9 101420 89
2009-07-09 06:52 51°14.405 2°54.951 7.4 21 13.9 101410 91
2009-07-09 06:53 51°14.503 2°54.688 7.9 25 13.9 101410 91
2009-07-09 06:54 51°14.589 2°54.403 8.9 29 14 101400 92
2009-07-09 06:55 51°14.682 2°54.119 7.9 26 14 101400 91
2009-07-09 06:56 51°14.844 2°53.999 2.6 268 14.1 101420 92
2009-07-09 06:57 51°14.987 2°54.105 3.4 27 14.2 101420 92
2009-07-09 06:58 51°15.093 2°54.309 3.3 26 14.2 101400 91
2009-07-09 06:59 51°15.211 2°54.494 4 23 14.2 101410 92
2009-07-09 07:00 51°15.346 2°54.649 2.1 39 14.3 101400 93
2009-07-09 07:01 51°15.486 2°54.796 2.6 41 14.3 101400 92
2009-07-09 07:02 51°15.625 2°54.944 2.7 28 14.3 101400 92
2009-07-09 07:03 51°15.759 2°55.101 3.4 26 14.4 101400 93
2009-07-09 07:04 51°15.837 2°55.331 5.5 13 14.4 101390 93
2009-07-09 07:05 51°15.894 2°55.574 5.7 11 14.6 101380 94
2009-07-09 07:06 51°15.958 2°55.809 5.7 15 14.5 101390 87
2009-07-09 07:07 51°16.032 2°56.044 5.3 12 14.5 101380 91
2009-07-09 07:08 51°16.105 2°56.269 4.3 19 14.5 101390 90
2009-07-09 07:09 51°16.18 2°56.503 5.5 16 14.5 101380 86
2009-07-09 07:10 51°16.255 2°56.728 4.8 19 14.4 101380 90
2009-07-09 07:11 51°16.332 2°56.957 5 16 14.6 101390 92
2009-07-09 07:12 51°16.42 2°57.183 4.8 18 14.6 101390 92
2009-07-09 07:13 51°16.509 2°57.396 4.3 17 14.7 101390 94
2009-07-09 07:14 51°16.602 2°57.61 5.4 16 14.6 101380 92
2009-07-09 07:15 51°16.693 2°57.823 3.4 20 14.6 101380 90
2009-07-09 07:16 51°16.776 2°58.048 4.5 18 14.6 101380 91
2009-07-09 07:17 51°16.849 2°58.271 5.6 19 14.5 101380 90
2009-07-09 07:18 51°16.923 2°58.501 4.2 8 14.6 101390 91
2009-07-09 07:19 51°16.999 2°58.73 4.6 17 14.7 101380 91
2009-07-09 07:20 51°17.077 2°58.961 4 9 14.7 101390 91
2009-07-09 07:21 51°17.156 2°59.186 4.2 20 14.7 101390 89
2009-07-09 07:22 51°17.231 2°59.41 5.5 16 14.7 101390 90
2009-07-09 07:23 51°17.307 2°59.644 4 15 14.7 101390 90
2009-07-09 07:24 51°17.382 2°59.873 5 18 14.7 101380 91
2009-07-09 07:25 51°17.455 3°0.099 6.1 18 14.7 101390 92
2009-07-09 07:26 51°17.53 3°0.328 5.5 14 14.7 101400 91
2009-07-09 07:27 51°17.605 3°0.555 3.8 15 14.7 101380 90
2009-07-09 07:28 51°17.682 3°0.781 3.8 21 14.7 101390 91
2009-07-09 07:29 51°17.757 3°1.017 5.5 20 14.7 101390 90
2009-07-09 07:30 51°17.827 3°1.248 5.1 18 14.7 101380 91
2009-07-09 07:31 51°17.896 3°1.471 5.4 19 14.6 101390 91
2009-07-09 07:32 51°17.967 3°1.695 5.8 12 14.6 101400 91
2009-07-09 07:33 51°18.04 3°1.918 4.7 17 14.7 101390 92
2009-07-09 07:34 51°18.11 3°2.145 4.7 18 14.7 101390 91
2009-07-09 07:35 51°18.178 3°2.374 4.7 11 14.9 101390 92
2009-07-09 07:36 51°18.25 3°2.604 5.2 9 14.9 101390 89
2009-07-09 07:37 51°18.323 3°2.832 5.9 15 14.9 101390 91
2009-07-09 07:38 51°18.382 3°2.959 5.1 26 14.9 101390 91
2009-07-09 07:39 51°18.418 3°2.972 4.8 27 15.1 101390 92
2009-07-09 07:40 51°18.428 3°3 6.2 30 14.9 101380 90
2009-07-09 07:41 51°18.413 3°3.02 6.3 21 15 101390 91
2009-07-09 07:42 51°18.397 3°3.021 7.2 24 15 101390 90
2009-07-09 07:43 51°18.385 3°3.013 7 28 14.9 101390 90
2009-07-09 07:44 51°18.374 3°3 7.9 29 14.9 101390 91
2009-07-09 07:45 51°18.363 3°2.984 7.1 29 14.9 101390 90
2009-07-09 07:46 51°18.354 3°2.964 6.2 31 14.9 101390 90
2009-07-09 07:47 51°18.344 3°2.943 6.8 23 15 101390 91
2009-07-09 07:48 51°18.335 3°2.92 6.1 23 15 101390 89
2009-07-09 07:49 51°18.324 3°2.895 6.3 22 15.1 101380 90
2009-07-09 07:50 51°18.314 3°2.87 5.9 23 15.2 101380 91
2009-07-09 07:51 51°18.304 3°2.844 5.3 27 15.2 101390 91
2009-07-09 07:52 51°18.294 3°2.819 6.9 20 15.2 101380 91
2009-07-09 07:53 51°18.285 3°2.795 7 20 15.3 101380 90
2009-07-09 07:54 51°18.274 3°2.771 7.3 22 15.2 101390 90
2009-07-09 07:55 51°18.265 3°2.748 7.9 21 15.2 101390 89
2009-07-09 07:56 51°18.256 3°2.724 7.2 21 15.2 101390 87
2009-07-09 07:57 51°18.246 3°2.7 7.6 15 15.3 101390 90
2009-07-09 07:58 51°18.237 3°2.676 7.7 12 15.2 101380 88
2009-07-09 07:59 51°18.228 3°2.651 7.7 17 15.2 101400 87
2009-07-09 08:00 51°18.219 3°2.627 7 24 15.2 101390 89
2009-07-09 08:01 51°18.21 3°2.602 6.7 25 15.1 101390 88
2009-07-09 08:02 51°18.2 3°2.577 6.9 24 15.2 101390 90
2009-07-09 08:03 51°18.189 3°2.553 7.5 21 15.1 101400 88
2009-07-09 08:04 51°18.178 3°2.529 6 19 15.1 101390 88
2009-07-09 08:05 51°18.168 3°2.505 6.9 17 15.2 101390 86
2009-07-09 08:06 51°18.156 3°2.481 7.6 14 15.3 101390 83
2009-07-09 08:07 51°18.145 3°2.458 6.3 17 15.3 101400 87
2009-07-09 08:08 51°18.134 3°2.433 7 17 15.3 101400 86
2009-07-09 08:09 51°18.123 3°2.409 7.3 16 15.2 101400 84
2009-07-09 08:10 51°18.113 3°2.385 8.1 15 15.2 101400 85
2009-07-09 08:11 51°18.102 3°2.361 7.6 17 15.2 101400 89
2009-07-09 08:12 51°18.092 3°2.337 5.7 18 15.2 101390 89
2009-07-09 08:13 51°18.081 3°2.312 7.2 15 15.3 101400 87
2009-07-09 08:14 51°18.069 3°2.289 6.6 16 15.3 101400 84
2009-07-09 08:15 51°18.058 3°2.266 6.4 14 15.2 101390 88
2009-07-09 08:16 51°18.047 3°2.242 7.3 16 15.3 101400 90
2009-07-09 08:17 51°18.036 3°2.219 6.3 19 15.2 101390 88
2009-07-09 08:18 51°18.025 3°2.196 6.2 24 15.2 101390 88
2009-07-09 08:19 51°18.014 3°2.173 6.3 26 15.2 101400 87
2009-07-09 08:20 51°18.001 3°2.16 6.1 23 15.2 101400 88
2009-07-09 08:21 51°17.996 3°2.203 4.3 29 15.2 101400 88
2009-07-09 08:22 51°18.03 3°2.322 4.4 23 15.3 101400 87
2009-07-09 08:23 51°18.086 3°2.509 3.3 13 15.2 101400 86
2009-07-09 08:24 51°18.159 3°2.724 5 13 15.2 101400 85
2009-07-09 08:25 51°18.245 3°2.944 4.1 9 15.2 101400 82
2009-07-09 08:26 51°18.331 3°3.163 3.8 6 15.2 101400 86
2009-07-09 08:27 51°18.416 3°3.385 2.9 10 15.2 101400 86
2009-07-09 08:28 51°18.498 3°3.6 4.7 9 15.2 101400 83
2009-07-09 08:29 51°18.583 3°3.825 4.1 358 15.2 101400 87
2009-07-09 08:30 51°18.663 3°4.046 4 354 15.3 101390 77
2009-07-09 08:31 51°18.747 3°4.273 5.3 356 15.2 101390 75
2009-07-09 08:32 51°18.836 3°4.483 3.8 356 15.2 101390 75
2009-07-09 08:33 51°18.982 3°4.604 2.1 336 15.1 101400 76
2009-07-09 08:34 51°19.15 3°4.63 2.8 331 15.1 101400 75
2009-07-09 08:35 51°19.321 3°4.614 2.8 328 15.1 101400 74
2009-07-09 08:36 51°19.438 3°4.455 7.2 27 15.1 101390 75
2009-07-09 08:37 51°19.437 3°4.214 6.5 25 15.1 101400 75
2009-07-09 08:38 51°19.462 3°3.964 9.2 23 15.2 101390 76
2009-07-09 08:39 51°19.472 3°3.691 9.1 20 15.2 101400 75
2009-07-09 08:40 51°19.412 3°3.41 8.4 25 15.2 101380 73
2009-07-09 08:41 51°19.313 3°3.141 12.1 322 15.2 101390 75
2009-07-09 08:42 51°19.214 3°2.854 10.2 325 15.3 101390 75
2009-07-09 08:43 51°19.137 3°2.585 13.3 318 15.2 101390 76
2009-07-09 08:44 51°19.076 3°2.313 11 326 15.3 101360 76
2009-07-09 08:45 51°19.011 3°2.043 9.6 336 15.1 101390 75
2009-07-09 08:46 51°18.936 3°1.776 14.7 335 15.2 101380 74
2009-07-09 08:47 51°18.848 3°1.498 15.3 338 15.4 101370 73
2009-07-09 08:48 51°18.777 3°1.192 14 338 15.5 101380 71
2009-07-09 08:49 51°18.721 3°0.875 13.1 333 15.6 101380 71
2009-07-09 08:50 51°18.676 3°0.556 15.3 332 15.6 101370 70
2009-07-09 08:51 51°18.628 3°0.239 14.4 333 15.7 101360 69
2009-07-09 08:52 51°18.582 2°59.919 15 337 15.7 101380 68
2009-07-09 08:53 51°18.523 2°59.6 12.8 340 15.9 101370 70
2009-07-09 08:54 51°18.437 2°59.297 12.3 342 15.9 101370 68
2009-07-09 08:55 51°18.336 2°59.004 14.5 344 16 101370 68
2009-07-09 08:56 51°18.232 2°58.713 14 341 15.9 101370 67
2009-07-09 08:57 51°18.128 2°58.424 13.7 344 15.9 101370 67
2009-07-09 08:58 51°18.024 2°58.134 14 342 15.9 101370 67
2009-07-09 08:59 51°17.924 2°57.842 15.1 342 16 101370 68
2009-07-09 09:00 51°17.823 2°57.548 11.6 341 15.9 101370 65
2009-07-09 09:01 51°17.722 2°57.251 15.4 341 16.1 101380 67
2009-07-09 09:02 51°17.621 2°56.959 13.2 342 15.9 101370 65
2009-07-09 09:03 51°17.517 2°56.661 14.9 341 15.9 101380 63
2009-07-09 09:04 51°17.417 2°56.363 14.9 340 15.9 101370 64
2009-07-09 09:05 51°17.315 2°56.065 12.7 343 16 101380 63
2009-07-09 09:06 51°17.211 2°55.77 12.2 343 16 101380 63
2009-07-09 09:07 51°17.123 2°55.465 13.8 336 16 101380 60
2009-07-09 09:08 51°17.067 2°55.144 15.7 340 16 101380 60
2009-07-09 09:09 51°17.015 2°54.817 14.6 339 16.1 101380 60
2009-07-09 09:10 51°16.964 2°54.489 13.9 335 16.1 101400 57
2009-07-09 09:11 51°16.901 2°54.172 13.1 337 16.2 101390 58
2009-07-09 09:12 51°16.829 2°53.866 13.5 338 16.3 101390 60
2009-07-09 09:13 51°16.834 2°53.563 15.5 327 16.2 101400 59
2009-07-09 09:14 51°16.929 2°53.319 12.5 316 16.3 101370 61
2009-07-09 09:15 51°17.051 2°53.114 14.4 316 16.2 101380 61
2009-07-09 09:16 51°17.184 2°52.93 11.3 21 16.1 101370 59
2009-07-09 09:17 51°17.348 2°52.896 11.2 26 16.2 101370 59
2009-07-09 09:18 51°17.498 2°52.995 6.2 251 16.1 101400 59
2009-07-09 09:19 51°17.611 2°53.184 3.3 262 16.3 101410 60
2009-07-09 09:20 51°17.693 2°53.413 9 257 16.4 101410 60
2009-07-09 09:21 51°17.785 2°53.634 5.6 261 16.4 101410 59
2009-07-09 09:22 51°17.879 2°53.854 4.7 255 16.5 101410 60
2009-07-09 09:23 51°17.972 2°54.072 4.7 261 16.6 101400 60
2009-07-09 09:24 51°18.065 2°54.291 6.1 259 16.7 101410 61
2009-07-09 09:25 51°18.157 2°54.504 6.8 258 16.7 101410 60
2009-07-09 09:26 51°18.248 2°54.724 5 263 16.7 101410 60
2009-07-09 09:27 51°18.34 2°54.94 5 260 16.7 101410 60
2009-07-09 09:28 51°18.429 2°55.159 8.5 257 16.6 101400 58
2009-07-09 09:29 51°18.517 2°55.377 6.6 259 16.6 101410 58
2009-07-09 09:30 51°18.608 2°55.594 5.5 261 16.7 101400 59
2009-07-09 09:31 51°18.7 2°55.808 4.2 261 16.8 101410 60
2009-07-09 09:32 51°18.789 2°56.024 4.2 261 16.8 101400 59
2009-07-09 09:33 51°18.879 2°56.239 5.1 259 16.7 101410 58
2009-07-09 09:34 51°18.969 2°56.456 5.2 261 16.7 101400 59
2009-07-09 09:35 51°19.06 2°56.675 6.1 261 16.7 101410 59
2009-07-09 09:36 51°19.145 2°56.9 3.9 268 16.6 101410 58
2009-07-09 09:37 51°19.212 2°57.14 2.3 264 16.6 101400 60
2009-07-09 09:38 51°19.271 2°57.384 3.2 267 16.5 101400 58
2009-07-09 09:39 51°19.328 2°57.63 2.5 29 16.5 101400 60
2009-07-09 09:40 51°19.392 2°57.87 2.8 270 16.5 101400 59
2009-07-09 09:41 51°19.452 2°58.11 4 264 16.6 101410 59
2009-07-09 09:42 51°19.515 2°58.35 2.8 265 16.5 101400 60
2009-07-09 09:43 51°19.578 2°58.59 3.6 269 16.5 101400 59
2009-07-09 09:44 51°19.642 2°58.831 2.6 266 16.5 101400 60
2009-07-09 09:45 51°19.704 2°59.068 3.2 270 16.6 101400 60
2009-07-09 09:46 51°19.771 2°59.311 3.1 267 16.7 101410 61
2009-07-09 09:47 51°19.836 2°59.549 3.4 263 16.7 101410 61
2009-07-09 09:48 51°19.899 2°59.787 3.7 266 16.5 101410 58
2009-07-09 09:49 51°19.962 3°0.025 3.9 29 16.6 101410 60
2009-07-09 09:50 51°20.025 3°0.264 3.5 263 16.6 101400 59
2009-07-09 09:51 51°20.088 3°0.505 3.2 22 16.5 101410 58
2009-07-09 09:52 51°20.152 3°0.746 3.8 22 16.6 101400 60
2009-07-09 09:53 51°20.22 3°0.984 4.6 264 16.8 101400 61
2009-07-09 09:54 51°20.282 3°1.225 4.3 267 16.8 101400 61
2009-07-09 09:55 51°20.347 3°1.465 3.9 267 16.6 101400 61
2009-07-09 09:56 51°20.411 3°1.706 3.9 268 16.5 101410 60
2009-07-09 09:57 51°20.474 3°1.949 3.3 266 16.5 101400 60
2009-07-09 09:58 51°20.536 3°2.195 3.6 23 16.5 101410 61
2009-07-09 09:59 51°20.575 3°2.455 2 30 16.5 101410 62
2009-07-09 10:00 51°20.613 3°2.717 4 29 16.6 101410 63
2009-07-09 10:01 51°20.646 3°2.982 3.6 30 16.5 101400 61
2009-07-09 10:02 51°20.681 3°3.246 2.5 265 16.5 101410 65
2009-07-09 10:03 51°20.716 3°3.513 3.5 21 16.4 101410 62
2009-07-09 10:04 51°20.732 3°3.784 1.5 28 16.6 101410 64
2009-07-09 10:05 51°20.714 3°4.059 2.9 26 16.4 101400 61
2009-07-09 10:06 51°20.647 3°4.32 2.8 41 16.5 101410 62
2009-07-09 10:07 51°20.543 3°4.532 5.3 33 16.5 101410 61
2009-07-09 10:08 51°20.441 3°4.718 6 33 16.4 101400 60
2009-07-09 10:09 51°20.343 3°4.907 4.5 38 16.5 101410 63
2009-07-09 10:10 51°20.227 3°5.057 8.5 15 16.6 101400 65
2009-07-09 10:11 51°20.07 3°5.064 9.8 2 16.4 101390 62
2009-07-09 10:12 51°19.906 3°4.974 13.3 356 16.2 101390 62
2009-07-09 10:13 51°19.749 3°4.831 13.3 355 16.1 101380 63
2009-07-09 10:14 51°19.604 3°4.633 12.6 352 16.1 101390 63
2009-07-09 10:15 51°19.497 3°4.384 15.5 339 16 101380 64
2009-07-09 10:16 51°19.44 3°4.089 17.4 338 16.1 101410 65
2009-07-09 10:17 51°19.388 3°3.789 15.5 337 16.1 101400 62
2009-07-09 10:18 51°19.337 3°3.487 16.8 336 16.2 101410 63
2009-07-09 10:19 51°19.307 3°3.18 17.6 331 16.2 101420 63
2009-07-09 10:20 51°19.282 3°2.874 17.1 335 16.2 101400 64
2009-07-09 10:21 51°19.238 3°2.567 17.6 338 16.1 101420 63
2009-07-09 10:22 51°19.177 3°2.269 16 338 16.1 101410 62
2009-07-09 10:23 51°19.105 3°1.977 16.7 338 16 101420 62
2009-07-09 10:24 51°19.031 3°1.688 15.1 342 16 101400 62
2009-07-09 10:25 51°18.963 3°1.396 15 337 16 101420 63
2009-07-09 10:26 51°18.913 3°1.098 17.6 337 16.1 101420 66
2009-07-09 10:27 51°18.871 3°0.796 13.3 338 16 101410 64
2009-07-09 10:28 51°18.829 3°0.492 15.4 337 15.9 101420 62
2009-07-09 10:29 51°18.789 3°0.192 14.9 341 15.9 101420 61
2009-07-09 10:30 51°18.745 2°59.895 16.8 342 15.9 101410 64
2009-07-09 10:31 51°18.704 2°59.598 13.9 339 15.9 101420 64
2009-07-09 10:32 51°18.655 2°59.3 17.5 336 15.9 101410 65
2009-07-09 10:33 51°18.599 2°59.007 17 340 15.7 101410 62
2009-07-09 10:34 51°18.512 2°58.736 16.6 344 15.7 101410 63
2009-07-09 10:35 51°18.408 2°58.479 16.9 346 15.6 101420 65
2009-07-09 10:36 51°18.306 2°58.218 14.3 345 15.5 101420 65
2009-07-09 10:37 51°18.198 2°57.962 15.1 343 15.4 101410 65
2009-07-09 10:38 51°18.104 2°57.695 16.3 348 15.4 101410 64
2009-07-09 10:39 51°18.016 2°57.447 14.2 342 15.5 101410 65
2009-07-09 10:40 51°17.966 2°57.311 12.8 280 15.5 101420 66
2009-07-09 10:41 51°17.93 2°57.236 10.6 350 15.4 101410 65
2009-07-09 10:42 51°17.899 2°57.19 12.4 353 15.3 101420 62
2009-07-09 10:43 51°17.865 2°57.124 10.3 347 15.3 101410 64
2009-07-09 10:44 51°17.831 2°57.017 11.9 341 15.3 101410 64
2009-07-09 10:45 51°17.798 2°56.919 13.3 334 15.5 101430 67
2009-07-09 10:46 51°17.771 2°56.846 11.6 340 15.4 101410 64
2009-07-09 10:47 51°17.743 2°56.785 8.8 337 15.5 101420 68
2009-07-09 10:48 51°17.715 2°56.719 11.9 348 15.5 101420 67
2009-07-09 10:49 51°17.687 2°56.65 9.1 339 15.4 101420 65
2009-07-09 10:50 51°17.66 2°56.58 10.9 337 15.4 101420 66
2009-07-09 10:51 51°17.635 2°56.51 9.8 339 15.5 101420 66
2009-07-09 10:52 51°17.607 2°56.44 9.6 350 15.6 101420 67
2009-07-09 10:53 51°17.576 2°56.37 8.7 347 15.5 101420 64
2009-07-09 10:54 51°17.547 2°56.302 11.4 347 15.5 101420 66
2009-07-09 10:55 51°17.518 2°56.235 10.8 338 15.5 101420 68
2009-07-09 10:56 51°17.492 2°56.167 11.2 341 15.5 101420 65
2009-07-09 10:57 51°17.464 2°56.099 10.7 341 15.4 101420 64
2009-07-09 10:58 51°17.438 2°56.03 10.2 336 15.6 101410 65
2009-07-09 10:59 51°17.412 2°55.96 10.3 332 15.5 101410 65
2009-07-09 11:00 51°17.386 2°55.889 9 339 15.7 101410 68
2009-07-09 11:01 51°17.359 2°55.818 11.1 339 15.7 101410 67
2009-07-09 11:02 51°17.334 2°55.747 11 338 15.7 101420 67
2009-07-09 11:03 51°17.308 2°55.678 8.8 339 15.8 101410 67
2009-07-09 11:04 51°17.279 2°55.615 11.6 340 15.7 101410 65
2009-07-09 11:05 51°17.25 2°55.556 10.9 345 15.6 101420 65
2009-07-09 11:06 51°17.217 2°55.498 9.9 346 15.5 101410 65
2009-07-09 11:07 51°17.189 2°55.466 10 357 15.5 101410 67
2009-07-09 11:08 51°17.165 2°55.454 10.4 -999 15.4 101410 66
2009-07-09 11:09 51°17.145 2°55.455 7.9 7 15.4 101400 66
2009-07-09 11:10 51°17.127 2°55.462 8.2 18 15.4 101410 66
2009-07-09 11:11 51°17.109 2°55.468 9.7 26 15.4 101400 66
2009-07-09 11:12 51°17.085 2°55.473 8.4 22 15.3 101410 64
2009-07-09 11:13 51°17.036 2°55.473 9.7 15 15.4 101400 65
2009-07-09 11:14 51°16.919 2°55.549 7.5 27 15.5 101400 68
2009-07-09 11:15 51°16.803 2°55.75 5.4 33 15.5 101420 65
2009-07-09 11:16 51°16.707 2°55.992 4.3 34 15.6 101420 66
2009-07-09 11:17 51°16.614 2°56.235 3.6 31 15.7 101420 67
2009-07-09 11:18 51°16.521 2°56.479 5.6 39 15.6 101420 65
2009-07-09 11:19 51°16.429 2°56.713 5.1 39 15.7 101420 67
2009-07-09 11:20 51°16.36 2°56.819 6.7 26 15.7 101410 65
2009-07-09 11:21 51°16.313 2°56.892 7.5 42 15.7 101410 67
2009-07-09 11:22 51°16.269 2°56.962 6.8 41 15.6 101410 66
2009-07-09 11:23 51°16.235 2°57.03 5.5 28 15.6 101400 64
2009-07-09 11:24 51°16.241 2°57.095 8.4 268 15.6 101430 66
2009-07-09 11:25 51°16.275 2°57.14 7.3 262 15.6 101420 65
2009-07-09 11:26 51°16.316 2°57.216 8.2 26 15.6 101430 65
2009-07-09 11:27 51°16.358 2°57.312 6 265 15.5 101410 64
2009-07-09 11:28 51°16.392 2°57.421 9.2 24 15.6 101410 65
2009-07-09 11:29 51°16.422 2°57.522 8 270 15.5 101410 64
2009-07-09 11:30 51°16.458 2°57.604 5.9 264 15.5 101400 64
2009-07-09 11:31 51°16.502 2°57.674 4.2 262 15.6 101400 66
2009-07-09 11:32 51°16.546 2°57.749 7.4 267 15.7 101410 65
2009-07-09 11:33 51°16.59 2°57.831 7.4 268 15.8 101390 66
2009-07-09 11:34 51°16.623 2°57.925 6.6 26 15.8 101410 67
2009-07-09 11:35 51°16.645 2°58.032 8 28 15.7 101400 66
2009-07-09 11:36 51°16.67 2°58.138 8.1 27 15.7 101390 65
2009-07-09 11:37 51°16.699 2°58.239 6.8 268 15.8 101400 66
2009-07-09 11:38 51°16.728 2°58.341 8.4 24 15.7 101410 65
2009-07-09 11:39 51°16.758 2°58.443 6.9 270 15.6 101410 65
2009-07-09 11:40 51°16.787 2°58.548 8 8 15.6 101410 64
2009-07-09 11:41 51°16.816 2°58.65 6 24 15.5 101410 64
2009-07-09 11:42 51°16.846 2°58.754 4.7 264 15.6 101400 65
2009-07-09 11:43 51°16.875 2°58.859 7 33 15.6 101410 64
2009-07-09 11:44 51°16.906 2°58.964 9.4 22 15.6 101410 64
2009-07-09 11:45 51°16.937 2°59.07 8.9 270 15.6 101410 65
2009-07-09 11:46 51°16.944 2°59.186 7.9 26 15.6 101390 66
2009-07-09 11:47 51°16.92 2°59.298 7.7 21 15.5 101400 64
2009-07-09 11:48 51°16.864 2°59.355 9.2 21 15.7 101400 65
2009-07-09 11:49 51°16.818 2°59.347 9 3 15.8 101380 68
2009-07-09 11:50 51°16.791 2°59.315 10.6 352 15.8 101360 67
2009-07-09 11:51 51°16.777 2°59.302 8.9 353 15.6 101370 65
2009-07-09 11:52 51°16.768 2°59.3 8.1 346 15.6 101380 66
2009-07-09 11:53 51°16.76 2°59.307 11 347 15.7 101370 67
2009-07-09 11:54 51°16.751 2°59.321 9.4 346 15.5 101380 65
2009-07-09 11:55 51°16.742 2°59.343 9.1 1 15.5 101370 67
2009-07-09 11:56 51°16.73 2°59.364 7.1 3 15.4 101380 65
2009-07-09 11:57 51°16.709 2°59.359 8.7 352 15.5 101370 64
2009-07-09 11:58 51°16.693 2°59.295 12.1 342 15.6 101370 66
2009-07-09 11:59 51°16.665 2°59.119 14.8 342 15.7 101360 66
2009-07-09 12:00 51°16.627 2°58.868 16.1 338 15.7 101360 64
2009-07-09 12:01 51°16.591 2°58.595 13.7 341 15.8 101360 64
2009-07-09 12:02 51°16.554 2°58.323 12.9 343 15.9 101360 67
2009-07-09 12:03 51°16.515 2°58.053 15.7 336 15.9 101360 65
2009-07-09 12:04 51°16.478 2°57.782 16.7 344 16.1 101360 67
2009-07-09 12:05 51°16.44 2°57.511 15.8 339 16 101350 65
2009-07-09 12:06 51°16.403 2°57.242 12.8 337 16.1 101360 65
2009-07-09 12:07 51°16.368 2°56.976 15.8 340 16 101340 62
2009-07-09 12:08 51°16.333 2°56.711 14.6 340 15.9 101350 63
2009-07-09 12:09 51°16.3 2°56.446 13.7 337 15.9 101360 62
2009-07-09 12:10 51°16.265 2°56.182 14.6 340 16.1 101360 64
2009-07-09 12:11 51°16.228 2°55.92 12.6 346 16 101350 62
2009-07-09 12:12 51°16.19 2°55.656 12.6 341 16 101360 63
2009-07-09 12:13 51°16.155 2°55.387 15.7 344 16.1 101360 64
2009-07-09 12:14 51°16.119 2°55.12 16.4 339 16 101360 65
2009-07-09 12:15 51°16.086 2°54.855 16.4 338 16 101360 63
2009-07-09 12:16 51°16.051 2°54.593 14.6 344 16 101340 61
2009-07-09 12:17 51°16.012 2°54.329 15.2 343 16 101350 64
2009-07-09 12:18 51°15.966 2°54.066 12.8 340 16 101360 62
2009-07-09 12:19 51°15.918 2°53.804 16.1 336 16 101340 63
2009-07-09 12:20 51°15.872 2°53.541 14.4 342 16.1 101360 64
2009-07-09 12:21 51°15.827 2°53.28 14.6 342 16 101360 62
2009-07-09 12:22 51°15.783 2°53.02 14.6 345 16 101350 62
2009-07-09 12:23 51°15.738 2°52.758 13.6 341 16 101360 65
2009-07-09 12:24 51°15.696 2°52.495 15.9 341 16.1 101350 65
2009-07-09 12:25 51°15.651 2°52.236 13.9 340 16 101340 64
2009-07-09 12:26 51°15.633 2°51.97 13.1 343 16 101360 65
2009-07-09 12:27 51°15.621 2°51.701 17 339 16.1 101350 67
2009-07-09 12:28 51°15.612 2°51.434 13 339 16 101360 63
2009-07-09 12:29 51°15.599 2°51.171 14.5 339 16 101360 63
2009-07-09 12:30 51°15.587 2°50.908 13 337 16 101360 63
2009-07-09 12:31 51°15.573 2°50.647 13.4 339 16.2 101360 64
2009-07-09 12:32 51°15.561 2°50.388 12.2 344 16.1 101350 63
2009-07-09 12:33 51°15.546 2°50.13 12.7 334 16.2 101370 64
2009-07-09 12:34 51°15.533 2°49.874 12.6 338 16.1 101370 63
2009-07-09 12:35 51°15.52 2°49.615 15.2 338 16.2 101380 64
2009-07-09 12:36 51°15.507 2°49.354 15 337 16.1 101370 63
2009-07-09 12:37 51°15.494 2°49.094 12.4 339 16.1 101380 63
2009-07-09 12:38 51°15.478 2°48.833 14.9 339 16.2 101360 63
2009-07-09 12:39 51°15.466 2°48.572 15.4 341 16.2 101350 63
2009-07-09 12:40 51°15.458 2°48.309 13.2 340 16.2 101370 63
2009-07-09 12:41 51°15.441 2°48.049 16.5 343 16.2 101360 64
2009-07-09 12:42 51°15.427 2°47.791 15.2 345 16 101350 62
2009-07-09 12:43 51°15.417 2°47.533 15.7 342 16.1 101370 65
2009-07-09 12:44 51°15.408 2°47.276 15.7 346 15.9 101350 62
2009-07-09 12:45 51°15.397 2°47.02 12.5 344 16 101360 62
2009-07-09 12:46 51°15.387 2°46.765 14.2 342 16 101360 63
2009-07-09 12:47 51°15.375 2°46.511 16.1 342 16.1 101360 63
2009-07-09 12:48 51°15.361 2°46.255 13.6 340 16.1 101350 63
2009-07-09 12:49 51°15.346 2°45.998 13.4 342 16.1 101360 63
2009-07-09 12:50 51°15.33 2°45.74 15.7 342 16.1 101360 64
2009-07-09 12:51 51°15.313 2°45.481 13 344 16.1 101360 63
2009-07-09 12:52 51°15.295 2°45.22 15.1 339 16.2 101370 65
2009-07-09 12:53 51°15.277 2°44.958 13.8 340 16.2 101360 65
2009-07-09 12:54 51°15.26 2°44.697 14.2 341 16.2 101360 62
2009-07-09 12:55 51°15.242 2°44.437 12.8 341 16.2 101360 63
2009-07-09 12:56 51°15.226 2°44.176 13.3 343 16.3 101370 64
2009-07-09 12:57 51°15.212 2°43.915 13.7 339 16.4 101360 65
2009-07-09 12:58 51°15.199 2°43.657 15.8 338 16.3 101360 64
2009-07-09 12:59 51°15.186 2°43.401 16.1 339 16.2 101360 63
2009-07-09 13:00 51°15.173 2°43.144 14.9 343 16.2 101360 61
2009-07-09 13:01 51°15.161 2°42.886 15 344 16.2 101360 60
2009-07-09 13:02 51°15.149 2°42.627 15.2 343 16.2 101360 62
2009-07-09 13:03 51°15.137 2°42.372 13.3 340 16.2 101370 62
2009-07-09 13:04 51°15.123 2°42.116 12.3 341 16.2 101370 61
2009-07-09 13:05 51°15.109 2°41.859 11.4 342 16.3 101370 62
2009-07-09 13:06 51°15.095 2°41.601 14.9 337 16.4 101380 63
2009-07-09 13:07 51°15.083 2°41.342 11.8 340 16.4 101380 61
2009-07-09 13:08 51°15.068 2°41.082 14.2 341 16.4 101370 61
2009-07-09 13:09 51°15.066 2°40.826 12.9 342 16.4 101380 60
2009-07-09 13:10 51°15.071 2°40.567 13.9 342 16.5 101390 62
2009-07-09 13:11 51°15.083 2°40.305 12.3 339 16.5 101380 62
2009-07-09 13:12 51°15.1 2°40.041 12.5 336 16.4 101380 60
2009-07-09 13:13 51°15.119 2°39.774 14.2 340 16.6 101390 62
2009-07-09 13:14 51°15.141 2°39.508 12.2 334 16.5 101380 61
2009-07-09 13:15 51°15.167 2°39.24 14.4 338 16.5 101380 61
2009-07-09 13:16 51°15.19 2°38.972 11.9 335 16.5 101380 61
2009-07-09 13:17 51°15.212 2°38.706 15 339 16.6 101390 63
2009-07-09 13:18 51°15.232 2°38.439 12.7 336 16.6 101380 62
2009-07-09 13:19 51°15.251 2°38.175 14.7 334 16.5 101380 60
2009-07-09 13:20 51°15.269 2°37.919 12.4 339 16.5 101390 59
2009-07-09 13:21 51°15.285 2°37.666 15 339 16.6 101400 59
2009-07-09 13:22 51°15.302 2°37.415 12.4 336 16.6 101390 60
2009-07-09 13:23 51°15.321 2°37.161 14.2 336 16.7 101370 61
2009-07-09 13:24 51°15.359 2°36.909 13.8 340 16.6 101380 59
2009-07-09 13:25 51°15.399 2°36.656 13.2 334 16.6 101390 60
2009-07-09 13:26 51°15.441 2°36.402 12.2 335 16.7 101390 62
2009-07-09 13:27 51°15.478 2°36.142 13.3 333 16.6 101380 60
2009-07-09 13:28 51°15.513 2°35.88 13.4 331 16.5 101380 59
2009-07-09 13:29 51°15.547 2°35.614 15.8 334 16.6 101390 61
2009-07-09 13:30 51°15.584 2°35.348 12.5 335 16.6 101380 58
2009-07-09 13:31 51°15.624 2°35.079 12.2 332 16.6 101380 61
2009-07-09 13:32 51°15.664 2°34.814 12.7 336 16.5 101400 60
2009-07-09 13:33 51°15.702 2°34.549 13 336 16.6 101370 61
2009-07-09 13:34 51°15.737 2°34.281 14.9 335 16.6 101370 60
2009-07-09 13:35 51°15.755 2°34.094 11.6 344 16.6 101390 60
2009-07-09 13:36 51°15.72 2°34.043 9.6 358 16.6 101380 61
2009-07-09 13:37 51°15.688 2°33.975 10.1 345 16.5 101390 61
2009-07-09 13:38 51°15.664 2°33.884 8.9 346 16.3 101390 58
2009-07-09 13:39 51°15.638 2°33.804 12 348 16.4 101380 58
2009-07-09 13:40 51°15.611 2°33.746 10.6 349 16.3 101380 57
2009-07-09 13:41 51°15.584 2°33.687 10.7 350 16.3 101380 59
2009-07-09 13:42 51°15.555 2°33.626 8.9 348 16.4 101390 59
2009-07-09 13:43 51°15.522 2°33.569 10.5 350 16.4 101380 58
2009-07-09 13:44 51°15.49 2°33.513 10 350 16.5 101380 60
2009-07-09 13:45 51°15.455 2°33.455 9.6 354 16.4 101380 59
2009-07-09 13:46 51°15.417 2°33.383 10 351 16.5 101380 61
2009-07-09 13:47 51°15.377 2°33.306 11.9 348 16.5 101380 61
2009-07-09 13:48 51°15.334 2°33.243 10.1 358 16.5 101380 59
2009-07-09 13:49 51°15.285 2°33.195 12 360 16.6 101380 60
2009-07-09 13:50 51°15.239 2°33.148 8.5 1 16.5 101390 59
2009-07-09 13:51 51°15.195 2°33.1 11.4 -999 16.6 101380 59
2009-07-09 13:52 51°15.152 2°33.051 9.9 -999 16.5 101390 57
2009-07-09 13:53 51°15.111 2°32.997 10.3 354 16.6 101390 61
2009-07-09 13:54 51°15.08 2°32.935 13 277 16.5 101380 58
2009-07-09 13:55 51°15.062 2°32.865 11 347 16.5 101380 57
2009-07-09 13:56 51°15.046 2°32.798 12 283 16.5 101380 57
2009-07-09 13:57 51°15.055 2°32.728 12 334 16.6 101400 58
2009-07-09 13:58 51°15.081 2°32.66 10.7 283 16.7 101390 57
2009-07-09 13:59 51°15.124 2°32.604 10.3 334 16.8 101370 57
2009-07-09 14:00 51°15.093 2°32.531 9.5 357 16.7 101380 57
2009-07-09 14:01 51°15.014 2°32.423 10 354 16.7 101380 58
2009-07-09 14:02 51°14.915 2°32.319 12.1 355 16.7 101380 61
2009-07-09 14:03 51°14.815 2°32.217 10.9 358 16.6 101380 58
2009-07-09 14:04 51°14.713 2°32.108 10.4 356 16.6 101380 58
2009-07-09 14:05 51°14.605 2°31.985 10 357 16.7 101390 60
2009-07-09 14:06 51°14.494 2°31.865 10.9 351 16.7 101390 59
2009-07-09 14:07 51°14.385 2°31.742 11.6 357 16.7 101380 59
2009-07-09 14:08 51°14.283 2°31.65 9.6 7 16.7 101390 60
2009-07-09 14:09 51°14.207 2°31.632 9.9 10 16.7 101400 58
2009-07-09 14:10 51°14.153 2°31.628 9.8 6 16.7 101400 59
2009-07-09 14:11 51°14.107 2°31.608 9.7 357 16.7 101400 58
2009-07-09 14:12 51°14.066 2°31.566 9.4 352 16.7 101390 57
2009-07-09 14:13 51°14.021 2°31.515 10.5 357 16.7 101390 58
2009-07-09 14:14 51°13.968 2°31.458 9.1 356 16.6 101390 57
2009-07-09 14:15 51°13.917 2°31.395 9.7 358 16.7 101390 60
2009-07-09 14:16 51°13.865 2°31.33 11 357 16.8 101390 62
2009-07-09 14:17 51°13.814 2°31.264 10 352 16.7 101390 59
2009-07-09 14:18 51°13.762 2°31.197 9.7 357 16.7 101390 61
2009-07-09 14:19 51°13.711 2°31.134 9 356 16.7 101390 59
2009-07-09 14:20 51°13.661 2°31.072 9.5 2 16.7 101390 59
2009-07-09 14:21 51°13.612 2°31.009 9.2 360 16.7 101390 59
2009-07-09 14:22 51°13.563 2°30.946 9.5 356 16.7 101390 58
2009-07-09 14:23 51°13.513 2°30.884 8.1 2 16.6 101390 56
2009-07-09 14:24 51°13.462 2°30.82 8.6 2 16.7 101390 57
2009-07-09 14:25 51°13.413 2°30.756 11 356 16.8 101400 60
2009-07-09 14:26 51°13.362 2°30.692 9.4 357 16.7 101380 57
2009-07-09 14:27 51°13.314 2°30.629 9 1 16.6 101390 54
2009-07-09 14:28 51°13.273 2°30.561 10.1 356 16.7 101390 55
2009-07-09 14:29 51°13.245 2°30.492 8.6 279 16.7 101380 55
2009-07-09 14:30 51°13.236 2°30.417 7.5 279 16.7 101390 58
2009-07-09 14:31 51°13.233 2°30.365 8 350 16.7 101380 56
2009-07-09 14:32 51°13.22 2°30.336 9.6 358 16.7 101380 55
2009-07-09 14:33 51°13.158 2°30.253 8.2 6 16.7 101390 56
2009-07-09 14:34 51°13.027 2°30.141 9.8 358 16.8 101400 57
2009-07-09 14:35 51°12.874 2°30.015 9.2 354 16.7 101380 56
2009-07-09 14:36 51°12.713 2°29.927 7.7 359 16.8 101390 57
2009-07-09 14:37 51°12.553 2°29.824 8.9 356 16.8 101390 57
2009-07-09 14:38 51°12.41 2°29.681 9.6 356 16.8 101380 56
2009-07-09 14:39 51°12.269 2°29.529 12.2 359 16.8 101380 57
2009-07-09 14:40 51°12.128 2°29.377 10.3 356 16.8 101380 57
2009-07-09 14:41 51°11.989 2°29.225 9.2 358 16.7 101380 56
2009-07-09 14:42 51°11.851 2°29.082 10.7 358 16.8 101390 58
2009-07-09 14:43 51°11.712 2°28.944 9.1 2 16.7 101390 56
2009-07-09 14:44 51°11.597 2°28.767 11.7 348 16.8 101390 56
2009-07-09 14:45 51°11.525 2°28.549 11.2 279 16.7 101390 58
2009-07-09 14:46 51°11.474 2°28.307 10.5 276 16.7 101390 56
2009-07-09 14:47 51°11.451 2°28.062 12.9 282 16.8 101380 56
2009-07-09 14:48 51°11.475 2°27.816 12.5 285 16.8 101370 55
2009-07-09 14:49 51°11.571 2°27.599 11.2 283 17 101390 57
2009-07-09 14:50 51°11.688 2°27.399 13.1 280 16.9 101390 55
2009-07-09 14:51 51°11.834 2°27.236 12.4 324 16.9 101370 55
2009-07-09 14:52 51°11.997 2°27.109 11.6 323 17 101370 56
2009-07-09 14:53 51°12.174 2°27.001 12.2 323 17 101400 55
2009-07-09 14:54 51°12.357 2°26.976 9.8 23 17 101380 56
2009-07-09 14:55 51°12.542 2°27.131 10.3 23 16.9 101400 56
2009-07-09 14:56 51°12.708 2°27.334 8.6 21 16.9 101400 56
2009-07-09 14:57 51°12.873 2°27.548 8.6 27 17 101400 57
2009-07-09 14:58 51°13.037 2°27.762 7.2 23 17 101400 56
2009-07-09 14:59 51°13.201 2°27.977 9.1 280 16.9 101400 56
2009-07-09 15:00 51°13.369 2°28.196 7.4 22 16.9 101400 56
2009-07-09 15:01 51°13.531 2°28.407 8.4 24 16.9 101410 56
2009-07-09 15:02 51°13.699 2°28.624 7.9 25 17 101400 57
2009-07-09 15:03 51°13.862 2°28.833 8.6 23 16.9 101410 56
2009-07-09 15:04 51°14.032 2°29.037 8.4 27 17 101410 57
2009-07-09 15:05 51°14.2 2°29.234 9.3 318 17 101390 59
2009-07-09 15:06 51°14.369 2°29.432 8.4 279 16.9 101390 61
2009-07-09 15:07 51°14.544 2°29.633 10.2 317 16.8 101390 63
2009-07-09 15:08 51°14.709 2°29.831 9.3 320 16.6 101390 63
2009-07-09 15:09 51°14.874 2°30.047 9.8 320 16.5 101380 61
2009-07-09 15:10 51°15.039 2°30.263 10.1 317 16.5 101380 63
2009-07-09 15:11 51°15.203 2°30.478 9 319 16.4 101370 63
2009-07-09 15:12 51°15.365 2°30.688 9.1 319 16.3 101380 64
2009-07-09 15:13 51°15.527 2°30.901 9.1 281 16.3 101400 64
2009-07-09 15:14 51°15.694 2°31.118 10.4 280 16.3 101380 64
2009-07-09 15:15 51°15.853 2°31.325 8.3 280 16.2 101390 65
2009-07-09 15:16 51°16.017 2°31.539 7.3 324 16.1 101380 65
2009-07-09 15:17 51°16.176 2°31.745 7.7 322 16.1 101390 65
2009-07-09 15:18 51°16.339 2°31.957 8.5 320 16 101390 65
2009-07-09 15:19 51°16.494 2°32.163 10 320 15.9 101390 65
2009-07-09 15:20 51°16.653 2°32.372 10.4 279 15.9 101400 65
2009-07-09 15:21 51°16.812 2°32.581 8.6 324 15.9 101390 65
2009-07-09 15:22 51°16.973 2°32.791 8.6 279 15.9 101410 65
2009-07-09 15:23 51°17.137 2°33.006 7.9 319 15.9 101400 66
2009-07-09 15:24 51°17.295 2°33.212 8.3 281 15.9 101400 65
2009-07-09 15:25 51°17.47 2°33.402 7.1 321 15.9 101410 66
2009-07-09 15:26 51°17.645 2°33.576 8.1 321 15.9 101410 65
2009-07-09 15:27 51°17.818 2°33.742 7.2 279 15.9 101400 65
2009-07-09 15:28 51°18.004 2°33.87 9.1 322 15.9 101410 65
2009-07-09 15:29 51°18.197 2°33.988 9.3 284 15.9 101400 65
2009-07-09 15:30 51°18.389 2°34.106 9.1 322 15.9 101400 65
2009-07-09 15:31 51°18.577 2°34.223 9.3 285 15.9 101400 64
2009-07-09 15:32 51°18.769 2°34.341 8.6 318 15.9 101390 62
2009-07-09 15:33 51°18.958 2°34.461 7.7 322 15.9 101400 62
2009-07-09 15:34 51°19.142 2°34.574 7.7 280 15.9 101400 62
2009-07-09 15:35 51°19.335 2°34.694 8.6 320 15.9 101400 63
2009-07-09 15:36 51°19.519 2°34.811 8.8 282 15.9 101400 62
2009-07-09 15:37 51°19.707 2°34.926 7.6 320 16 101410 63
2009-07-09 15:38 51°19.895 2°35.044 8.7 282 15.9 101390 61
2009-07-09 15:39 51°20.092 2°35.119 8.8 286 16 101390 62
2009-07-09 15:40 51°20.208 2°35.115 6.3 284 16 101400 62
2009-07-09 15:41 51°20.219 2°35.042 5.3 354 16 101410 62
2009-07-09 15:42 51°20.225 2°34.973 5.3 279 16 101400 62
2009-07-09 15:43 51°20.268 2°34.917 6 283 16 101410 62
2009-07-09 15:44 51°20.326 2°34.879 5.3 327 16 101410 60
2009-07-09 15:45 51°20.397 2°34.869 6 282 16 101410 60
2009-07-09 15:46 51°20.471 2°34.896 5.2 23 16 101410 60
2009-07-09 15:47 51°20.544 2°34.94 5 278 16 101400 61
2009-07-09 15:48 51°20.608 2°35.009 3.9 278 16 101410 60
2009-07-09 15:49 51°20.651 2°35.107 3.3 279 16.1 101410 62
2009-07-09 15:50 51°20.666 2°35.222 1.4 287 16.1 101410 61
2009-07-09 15:51 51°20.676 2°35.336 1.7 262 16.1 101420 61
2009-07-09 15:52 51°20.681 2°35.446 2.3 267 16.2 101410 62
2009-07-09 15:53 51°20.676 2°35.548 1.6 23 16.2 101410 61
2009-07-09 15:54 51°20.665 2°35.648 1.3 21 16.2 101410 61
2009-07-09 15:55 51°20.649 2°35.744 1.3 23 16.2 101410 61
2009-07-09 15:56 51°20.626 2°35.827 1.1 25 16.3 101410 61
2009-07-09 15:57 51°20.601 2°35.916 1.9 19 16.4 101410 61
2009-07-09 15:58 51°20.575 2°36.003 1.3 27 16.5 101410 60
2009-07-09 15:59 51°20.55 2°36.092 1.3 29 16.5 101410 60
2009-07-09 16:00 51°20.521 2°36.183 0.8 25 16.6 101410 60
2009-07-09 16:01 51°20.482 2°36.252 1.9 36 16.6 101410 58
2009-07-09 16:02 51°20.437 2°36.296 2.6 30 16.5 101420 59
2009-07-09 16:03 51°20.389 2°36.329 2.7 23 16.5 101410 60
2009-07-09 16:04 51°20.341 2°36.338 3.5 15 16.4 101420 60
2009-07-09 16:05 51°20.303 2°36.313 3.8 5 16.3 101410 59
2009-07-09 16:06 51°20.294 2°36.258 5.5 339 16.2 101420 60
2009-07-09 16:07 51°20.317 2°36.222 3.9 329 16.1 101410 61
2009-07-09 16:08 51°20.34 2°36.209 3.2 329 16.2 101410 60
2009-07-09 16:09 51°20.375 2°36.212 4.5 26 16.2 101410 61
2009-07-09 16:10 51°20.417 2°36.291 1.8 28 16.1 101410 60
2009-07-09 16:11 51°20.353 2°36.46 3.1 340 16.2 101420 60
2009-07-09 16:12 51°20.253 2°36.716 3.5 332 16.1 101410 60
2009-07-09 16:13 51°20.138 2°36.955 3.5 336 16.1 101410 61
2009-07-09 16:14 51°20.02 2°37.195 4.1 345 16.1 101420 60
2009-07-09 16:15 51°19.908 2°37.443 2.9 332 16.1 101410 59
2009-07-09 16:16 51°19.798 2°37.696 4.4 339 16.1 101410 61
2009-07-09 16:17 51°19.688 2°37.944 4.1 338 16.1 101410 60
2009-07-09 16:18 51°19.576 2°38.184 4 339 16.1 101410 61
2009-07-09 16:19 51°19.464 2°38.431 4.5 341 16.1 101410 61
2009-07-09 16:20 51°19.353 2°38.674 4.3 348 16 101420 60
2009-07-09 16:21 51°19.237 2°38.922 5.1 351 16.1 101420 61
2009-07-09 16:22 51°19.125 2°39.171 5.3 349 16.1 101420 60
2009-07-09 16:23 51°19.016 2°39.419 4.4 343 16.1 101420 60
2009-07-09 16:24 51°18.908 2°39.667 3.9 346 16 101410 60
2009-07-09 16:25 51°18.8 2°39.913 3.7 339 16.1 101420 61
2009-07-09 16:26 51°18.691 2°40.161 3.9 345 16.1 101410 61
2009-07-09 16:27 51°18.584 2°40.41 4.1 348 16.1 101420 61
2009-07-09 16:28 51°18.474 2°40.657 4.1 339 16.1 101420 61
2009-07-09 16:29 51°18.361 2°40.902 4.4 284 16.1 101410 60
2009-07-09 16:30 51°18.248 2°41.142 4.2 351 16.1 101410 62
2009-07-09 16:31 51°18.136 2°41.384 4.1 342 16.1 101410 60
2009-07-09 16:32 51°18.019 2°41.626 4.3 335 16.1 101410 61
2009-07-09 16:33 51°17.901 2°41.866 4.9 342 16.1 101410 61
2009-07-09 16:34 51°17.783 2°42.107 3.8 346 16.1 101420 61
2009-07-09 16:35 51°17.673 2°42.355 3.8 342 16.1 101400 62
2009-07-09 16:36 51°17.559 2°42.594 3.7 285 16.1 101410 60
2009-07-09 16:37 51°17.446 2°42.833 3.5 341 16.1 101410 59
2009-07-09 16:38 51°17.337 2°43.065 2.6 346 16.1 101410 59
2009-07-09 16:39 51°17.226 2°43.293 3 348 16.2 101400 61
2009-07-09 16:40 51°17.108 2°43.521 4.4 352 16.2 101410 61
2009-07-09 16:41 51°16.995 2°43.753 3.5 351 16.2 101400 61
2009-07-09 16:42 51°16.882 2°43.984 2.8 352 16.2 101410 61
2009-07-09 16:43 51°16.769 2°44.214 3.2 339 16.2 101400 61
2009-07-09 16:44 51°16.654 2°44.446 3.9 349 16.2 101400 60
2009-07-09 16:45 51°16.557 2°44.694 2.6 286 16.2 101400 59
2009-07-09 16:46 51°16.464 2°44.944 3.1 339 16.3 101400 62
2009-07-09 16:47 51°16.368 2°45.196 3.1 337 16.3 101400 61
2009-07-09 16:48 51°16.27 2°45.446 2.8 344 16.3 101400 62
2009-07-09 16:49 51°16.171 2°45.692 2.7 352 16.3 101400 63
2009-07-09 16:50 51°16.095 2°45.959 2.6 352 16.3 101400 62
2009-07-09 16:51 51°16.03 2°46.244 2.8 284 16.3 101400 62
2009-07-09 16:52 51°15.965 2°46.524 2.3 279 16.3 101400 62
2009-07-09 16:53 51°15.893 2°46.813 2.5 347 16.4 101420 62
2009-07-09 16:54 51°15.823 2°47.095 2.3 359 16.4 101400 61
2009-07-09 16:55 51°15.752 2°47.373 2.2 282 16.4 101400 61
2009-07-09 16:56 51°15.682 2°47.651 3 359 16.4 101410 62
2009-07-09 16:57 51°15.613 2°47.929 2.2 358 16.3 101410 60
2009-07-09 16:58 51°15.545 2°48.207 2.1 352 16.4 101400 60
2009-07-09 16:59 51°15.482 2°48.488 3 278 16.4 101410 60
2009-07-09 17:00 51°15.42 2°48.767 2.9 280 16.4 101400 60
2009-07-09 17:01 51°15.36 2°49.049 3.1 279 16.5 101410 62
2009-07-09 17:02 51°15.3 2°49.332 2.8 278 16.5 101420 62
2009-07-09 17:03 51°15.256 2°49.622 1.7 286 16.5 101420 61
2009-07-09 17:04 51°15.216 2°49.919 2.4 348 16.5 101410 62
2009-07-09 17:05 51°15.178 2°50.212 2.5 358 16.6 101400 61
2009-07-09 17:06 51°15.137 2°50.505 1.9 278 16.6 101410 60
2009-07-09 17:07 51°15.099 2°50.799 1.8 283 16.6 101400 61
2009-07-09 17:08 51°15.054 2°51.092 2.3 279 16.5 101400 60
2009-07-09 17:09 51°15.01 2°51.386 1.4 354 16.6 101400 62
2009-07-09 17:10 51°14.969 2°51.675 1.4 6 16.7 101410 62
2009-07-09 17:11 51°14.928 2°51.964 1.2 2 16.7 101400 61
2009-07-09 17:12 51°14.879 2°52.249 1.3 24 16.7 101400 60
2009-07-09 17:13 51°14.832 2°52.532 1.8 10 16.7 101400 61
2009-07-09 17:14 51°14.781 2°52.814 2.8 4 16.8 101400 61
2009-07-09 17:15 51°14.729 2°53.096 1.9 10 16.7 101400 61
2009-07-09 17:16 51°14.684 2°53.358 2 28 16.8 101400 62
2009-07-09 17:17 51°14.647 2°53.599 3 81 16.8 101400 61
2009-07-09 17:18 51°14.611 2°53.835 1.9 44 16.8 101410 61
2009-07-09 17:19 51°14.574 2°54.063 2.3 80 16.7 101400 60
2009-07-09 17:20 51°14.539 2°54.287 2.5 40 16.8 101400 63
2009-07-09 17:21 51°14.495 2°54.502 2.3 32 17 101390 63
2009-07-09 17:22 51°14.446 2°54.728 2.9 19 16.9 101400 62
2009-07-09 17:23 51°14.381 2°54.963 1.9 19 16.8 101400 61
2009-07-09 17:24 51°14.291 2°55.194 3 278 16.9 101400 63
2009-07-09 17:25 51°14.174 2°55.372 4.1 19 17 101390 63
2009-07-09 17:26 51°14.074 2°55.453 2.9 352 16.8 101400 62
2009-07-09 17:27 51°13.965 2°55.53 2.8 281 16.9 101390 61
2009-07-09 17:28 51°13.852 2°55.612 6.9 359 16.9 101390 61
2009-07-09 17:29 51°13.763 2°55.706 6.7 23 16.9 101400 61
2009-07-09 17:30 51°13.709 2°55.807 2.5 16 17 101400 60
2009-07-09 17:31 51°13.676 2°55.906 5.8 40 17 101400 60
2009-07-09 17:32 51°13.662 2°55.954 5 76 17 101400 61
2009-07-09 17:33 51°13.661 2°55.961 2.7 82 17.1 101400 62
2009-07-09 17:34 51°13.662 2°55.962 8.1 81 17.3 101390 60